Location: LDNL
(36.4545°S, 141.6685°E)
Time: 04:20:23
(UTC+11:00)

Vanguard 2 - Pass Details

Date: 17 August 2022
Orbit: 552 x 2934 km, 32.9° (Epoch: 06 October)

Event Time Altitude Azimuth Distance (km) Brightness Sun altitude
Rises 18:26:34 0° 274° (W) 6,786 14.7 -5.8°
Reaches altitude 10° 18:31:15 10° 275° (W) 5,696 13.7 -6.7°
Maximum altitude 18:48:13 77° 356° (N) 2,336 10.0 -10.0°
Enters shadow 18:58:47 12° 79° (E) 3,764 10.4 -12.1°
Drops below altitude 10° 18:59:14 10° 79° (E) 3,884 - -12.2°
Sets 19:01:49 0° 81° (E) 4,601 - -12.7°
